Voltar ao catálogo

QUBE2

AtivoRádio AmadorSSO
NORAD 69023·PAYLOAD·🇩🇪 Germany

Lançado May 3, 2026 de Vandenberg Space Force Base

Loading…

Próximas Passagens (próximas 24 horas)

TLE

AtualizadoSource: Space-Track

Época: Sep 14, 2026, 15:36 UTC

1 69023U 26100AV  26257.65046824  .00006743  00000-0  30368-3 0  9999
2 69023  97.3941 153.8864 0004615  59.9139 300.2554 15.21379426 20407

Acompanhe QUBE2 em tempo real com AllMySat

Download on the App Store